Location: Falniów
(50.3639°N, 19.9642°E)
Time: 18:45:41
(UTC+00:00)

SL-08 R/B - Pass Details

Date: 29 April 2026
Orbit: 667 x 728 km, 98.5° (Epoch: 13 May)

Event Time Altitude Azimuth Distance (km) Brightness Sun altitude
Rises 20:02:25 0° 9° (N) 3,164 7.3 -16.6°
Reaches altitude 10° 20:04:48 10° 3° (N) 2,237 6.6 -16.9°
Maximum altitude 20:09:25 42° 294° (WNW) 1,036 4.6 -17.3°
Drops below altitude 10° 20:13:57 10° 224° (SW) 2,204 5.8 -17.8°
Sets 20:16:17 0° 218° (SW) 3,112 6.5 -18.0°
